Regional Weather Roundup
Issued by NWS

Home | Current Version | Previous Version | Text Only | Print | Product List | Glossary On
Versions: 1 2 3 4 5 6 7 8 9 10 11 12 13 14 15 16 17 18 19 20 21 22 23 24 25 26 27 28 29 30 31 32 33 34 35 36 37 38 39 40 41 42 43 44 45 46 47 48 49 50
000
ASUS43 KDMX 200507
RWRIA

WEATHER ROUNDUP FOR IOWA
NATIONAL WEATHER SERVICE DES MOINES IA
1200 AM CDT MON OCT 20 2014

NOTE: "FAIR" INDICATES FEW OR NO CLOUDS BELOW 12,000 FEET WITH NO
SIGNIFICANT WEATHER AND/OR OBSTRUCTIONS TO VISIBILITY.

* - THESE STATIONS ARE NOT NWS STATIONS...THUS NOT UNDER NWS
QUALITY CONTROL.  THEY ALSO DO NOT REPORT WEATHER SUCH
AS PRECIPITATION OR FOG.

IAZ001>003-012>014-020>022-031>034-043>046-200600-
   NORTHWEST IOWA

CITY           SKY/WX    TMP DP  RH WIND       PRES   REMARKS
CARROLL *      CLEAR     50  46  87 W9        29.93R
CHEROKEE *       N/A     43  43 100 CALM      29.95R
DENISON *      CLOUDY    46  46 100 CALM      29.93R
LE MARS *      CLEAR     43  41  93 CALM      29.96R
ORANGE CITY *  CLEAR     57  39  51 N6        29.95S
SHELDON *      CLEAR     46  39  76 N7        29.95R
STORM LAKE *   CLEAR     52  45  76 W9        29.95R
$$

IAZ055>058-069>071-079>083-090>094-200600-
   SOUTHWEST IOWA

CITY           SKY/WX    TMP DP  RH WIND       PRES   REMARKS
ATLANTIC *     CLEAR     46  45  93 CALM      29.94S
AUDUBON *      CLEAR     52  45  76 CALM      29.95R
CLARINDA *     CLEAR     46  45  93 CALM      29.98S
COUNCIL BLFS * CLEAR     57  50  77 SW9       29.94F
CRESTON *      CLEAR     50  45  81 W6        29.95F
HARLAN  *      CLEAR     46  46 100 CALM      29.98R
RED OAK *      CLEAR     48  45  87 S5        29.96S
SHENANDOAH *     N/A     52  48  87 SW3       29.97S
$$

IAZ047>049-059>061-072>074-084-200600-
   CENTRAL IOWA

CITY           SKY/WX    TMP DP  RH WIND       PRES   REMARKS
ANKENY *       CLEAR     57  48  72 W8        29.90S
CHARITON *     CLEAR     54  46  76 SW8       29.93S
GRINNELL*        N/A     50  45  81 SW7       29.90F
KNOXVILLE *    CLEAR     54  46  76 SW9       29.90F
PELLA *          N/A     54  46  76 W7        29.92S
PERRY *          N/A     52  48  87 W7        29.91S
$$

IAZ004>006-015-016-023>025-035-036-200600-
   NORTH CENTRAL IOWA

CITY           SKY/WX    TMP DP  RH WIND       PRES   REMARKS
ALGONA *       CLEAR     54  43  66 NW9       29.92R
CLARION *      CLEAR     46  45  93 CALM      29.90R
FOREST CITY *  CLEAR     50  43  76 NW7       29.89R
IOWA FALLS *     N/A     50  45  81 W9        29.89S
$$

IAZ007>011-017>019-026>030-037>042-050>054-066-200600-
   NORTHEAST IOWA

CITY           SKY/WX    TMP DP  RH WIND       PRES   REMARKS
CHARLES CITY * CLEAR     50  45  81 W8        29.86S
DECORAH *      CLEAR     52  46  82 VRB6      29.82S
MONTICELLO *   CLEAR     52  45  76 SW7       29.85F
OELWEIN *      CLEAR     50  45  81 SW9       29.86S
$$

IAZ064-065-067-068-078-200600-
   EAST CENTRAL IOWA

CITY           SKY/WX    TMP DP  RH WIND       PRES   REMARKS
MT. PLEASANT *   N/A     48  43  81 S7        29.93F
MUSCATINE *    CLEAR     52  43  71 S3        29.91F
$$

IAZ062-063-075>077-085>089-095>099-200600-
   SOUTHEAST IOWA

CITY           SKY/WX    TMP DP  RH WIND       PRES   REMARKS
FAIRFIELD *    CLEAR     52  43  71 SW6       29.92F
FORT MADISON * CLEAR     55  48  76 S8        29.95F
KEOKUK *       CLEAR     54  46  76 SW9       29.94F
OSKALOOSA *      N/A     48  45  87 SW6       29.91F
CENTERVILLE *  CLEAR     52  46  82 SW8       29.95F
WASHINGTON *   CLEAR     50  46  87 SW9       29.91F
$$

ABBREVIATIONS USED IN REMARKS
   TC - TEMPERATURES IN CELSIUS
  WCI - WIND CHILL INDEX
   HX - HEAT INDEX
  VSB - VISIBILITY
$$




USA.gov is the U.S. government's official web portal to all federal, state and local government web resources and services.